KAZEOSAT 2

Last updated on Thu Oct 30 2025 00:02:31 GMT+0000 (Coordinated Universal Time)

1 40010U 14033A 25302.56085726 .00001014 00000+0 12454-3 0 9991 2 40010 97.5559 149.1476 0008898 10.7772 349.3632 14.85059108614727
UTC large
Height (km)
Speed (km/s)
/
Latitude / Longitude
Inclination (degrees)
Orbital Period (minutes)
Azimuth
Elevation
Range (km)
Doppler Factor

Next 0 passes for location: London (51.5072 / 0.1276)

Sorry there are no passes over London.